Location: Salisbury
(38.3600°N, 75.6000°W)
Time: 05:24:50
(UTC-04:00)

Daily predictions for brighter satellites

Satellite Brightness Start Highest point End
(mag) Time Altitude Azimuth Time Altitude Azimuth Time Altitude Azimuth
ATLAS 3B R/B 4.4 00:07:57 10° WNW 00:11:07 21° W 00:11:07 21° W
Cosmos 2219 Rocket 3.8 00:14:24 30° NNW 00:14:24 30° NNW 00:18:10 10° N
SL-16 R/B 4.3 00:21:37 19° NE 00:21:37 19° NE 00:23:13 10° NNE
CZ-2C R/B 4.5 00:17:02 10° NNE 00:19:21 27° N 00:19:21 27° N
Cosmos 2333 Rocket 4.0 00:32:48 27° NNW 00:32:48 27° NNW 00:36:18 10° N
Cosmos 2237 Rocket 4.1 00:57:08 24° NNW 00:57:08 24° NNW 01:00:12 10° N
Cosmos 2369 Rocket 4.4 00:56:43 10° N 00:59:57 19° NE 00:59:57 19° NE
CENTAUR R/B 3.5 00:58:30 10° NNW 01:04:37 58° NNW 01:04:37 58° NNW
USA 215 4.1 01:13:10 46° N 01:13:10 46° N 01:17:59 10° NW
SL-16 R/B 4.3 02:03:29 19° NW 02:03:29 19° NW 02:06:18 10° N
SL-16 R/B 3.7 02:30:31 33° E 02:31:39 35° ENE 02:37:12 10° N
Cosmos 1943 Rocket 3.5 02:27:56 10° NNW 02:31:11 35° N 02:31:11 35° N
Resurs 1-4 Rocket 3.7 02:34:50 10° NE 02:38:22 28° ENE 02:38:22 28° ENE
Cosmos 2369 Rocket 4.0 02:39:38 10° NNW 02:41:41 23° NW 02:41:41 23° NW
CZ-3A R/B 3.7 02:38:36 10° NW 02:48:13 64° NE 02:53:30 10° ESE
CZ-2D R/B 3.4 02:44:52 10° NNE 02:48:55 35° ENE 02:48:55 35° ENE
Cosmos 1943 4.4 02:56:08 33° NNW 02:56:08 33° NNW 02:59:57 10° N
ARIANE 5 R/B 3.2 03:07:38 10° NNE 03:12:11 51° ENE 03:12:11 51° ENE
BREEZE-M DEB (TANK) 4.4 03:13:14 39° NW 03:14:54 48° N 03:32:22 10° ENE
ADEOS Rocket 3.6 03:17:39 10° N 03:21:45 40° NW 03:21:45 40° NW
Cosmos 1726 4.3 03:29:17 24° ENE 03:29:17 24° ENE 03:31:32 10° NNE
IRS-1D 3.6 03:31:56 10° N 03:36:35 70° NNW 03:36:35 70° NNW
Cosmos 2221 3.5 03:41:00 42° N 03:41:00 42° N 03:43:58 10° N
Cosmos 1805 Rocket 4.0 03:38:22 10° N 03:42:20 59° NE 03:42:20 59° NE
ADEOS 3.4 03:40:01 10° NNE 03:45:15 88° WNW 03:45:16 88° W
Spot 4 Rocket 4.2 03:40:29 10° N 03:45:08 61° NW 03:45:08 61° NW
COSMOS 2406 3.0 03:47:05 79° SW 03:47:25 87° WNW 03:53:09 10° NNE
Cosmos 2285 Rocket 4.0 03:46:52 59° S 03:48:10 81° ESE 03:54:34 10° NNE
Cosmos 372 Rocket 3.9 03:46:20 10° NNW 03:51:00 69° NW 03:51:00 69° NW
Cosmos 2098 Rocket 4.2 03:52:13 46° WNW 03:52:13 46° WNW 03:56:56 10° N
Cosmos 540 Rocket 4.2 03:58:15 38° NW 03:58:15 38° NW 04:02:38 10° N
Okean O Rocket 4.3 03:56:57 10° ENE 03:59:31 15° E 04:02:04 10° SE
Cosmos 783 Rocket 4.5 04:05:05 60° W 04:05:27 61° WNW 04:10:40 10° NNE
MOS 1 Rocket 3.9 04:03:52 10° N 04:07:19 40° NW 04:07:19 40° NW
Cosmos 1300 2.7 04:12:33 76° E 04:12:33 76° E 04:16:22 10° N
SL-16 R/B 3.2 04:15:36 34° W 04:15:36 34° W 04:20:48 10° NNW
Cosmos 1125 Rocket 4.5 04:10:54 10° NW 04:14:14 31° WNW 04:14:14 31° WNW
BREEZE M DEB (TANK) 4.0 04:17:34 25° NE 04:17:34 25° NE 04:19:14 10° E
Sich 1 2.9 04:12:46 10° N 04:17:10 81° W 04:17:46 65° SSW
Resurs 1-4 Rocket 3.0 04:14:40 10° N 04:19:12 30° WNW 04:19:26 30° WNW
Cosmos 2123 Rocket 4.5 04:14:39 10° NNW 04:20:20 38° W 04:20:54 37° W
CZ-2D R/B 3.4 04:17:26 10° N 04:21:16 57° WNW 04:21:16 57° WNW
Cosmos 1656 Rocket 4.4 04:19:41 10° NW 04:24:03 34° W 04:24:03 34° W
Cosmos 1315 Rocket 2.7 04:24:24 10° NNW 04:28:23 63° W 04:28:33 62° WSW
CZ-2D R/B 3.3 04:25:21 10° NNW 04:29:41 25° WNW 04:30:15 25° WNW
Cosmos 1459 Rocket 3.9 04:25:34 22° S 04:29:45 85° E 04:35:51 10° N
Cosmos 1538 Rocket 4.0 04:30:39 36° SSW 04:32:54 80° WNW 04:38:18 10° NNE
Cosmos 1470 Rocket 4.0 04:28:55 10° N 04:33:11 59° E 04:37:26 10° SSE
Cosmos 2228 Rocket 3.1 04:31:12 32° S 04:33:17 82° E 04:37:45 10° N
USA 229 DEB 3.9 04:31:17 10° NW 04:38:13 53° WSW 04:45:17 10° S
USA 229 3.9 04:31:23 10° NW 04:38:20 53° WSW 04:45:23 10° S
Cosmos 2082 Rocket 3.3 04:34:32 10° S 04:39:43 40° ESE 04:44:57 10° NE
Cosmos 1515 Rocket 3.6 04:37:53 25° S 04:40:23 81° E 04:44:49 10° N
NOSS 3-1 (A) 4.4 04:35:50 10° NNW 04:43:31 69° NE 04:51:58 10° SE
PSLV R/B 3.8 04:42:54 35° NW 04:43:54 52° N 04:47:05 10° E
USA 161 3.7 04:47:07 11° NNW 04:47:07 11° NNW 04:47:12 10° NNW
Cosmos 1633 Rocket 3.3 04:41:21 10° NNW 04:45:32 46° W 04:46:49 35° SW
Meteor 2-3 Rocket 4.4 04:41:19 10° N 04:46:53 57° ENE 04:52:28 10° SSE
Tiangong 2 2.1 04:46:42 33° S 04:47:10 35° SSE 04:50:09 10° E
PSLV R/B 4.1 04:44:01 10° NNE 04:48:10 74° ESE 04:51:13 18° S
Cosmos 2061 Rocket 4.0 04:43:46 16° SSW 04:49:06 77° W 04:55:34 10° N
ARIANE 5 R/B 4.1 04:47:54 10° NNW 04:51:25 19° WNW 04:52:31 17° W
Lacrosse 5 3.5 04:47:14 10° NNW 04:51:53 35° NE 04:56:31 10° ESE
OE (NEXTSAT) 4.3 04:51:24 42° SW 04:52:28 82° SSE 04:56:04 10° ENE
CZ-4B R/B 3.2 04:52:45 10° NNE 04:57:14 82° ESE 05:01:30 12° S
CZ-4B R/B 3.8 04:53:02 10° NNE 04:58:26 56° E 05:03:41 10° S
UNKNOWN OBJECT B 4.5 04:56:44 10° NNW 04:59:34 19° WNW 05:00:01 18° WNW
Cosmos 1680 Rocket 4.0 04:55:39 10° S 05:00:51 61° ESE 05:06:06 10° NNE
Cosmos 1726 4.0 05:03:54 15° WNW 05:03:54 15° WNW 05:05:59 10° NW
PAYLOAD B 4.4 05:00:14 10° NNE 05:05:52 77° ESE 05:11:26 10° S
Cosmos 1328 Rocket 4.3 05:05:17 24° WSW 05:07:02 33° WNW 05:11:00 10° NNW
Cosmos 2369 3.8 05:02:43 10° NNW 05:08:24 81° ENE 05:14:03 10° SSE
SL-27 R/B 4.3 05:08:12 15° WNW 05:08:28 15° WNW 05:10:32 10° NNW
Cosmos 2016 Rocket 3.9 05:03:07 10° SSW 05:09:12 67° W 05:15:16 10° N
ADEOS II 2.2 05:04:57 10° N 05:10:08 59° WNW 05:14:51 12° SSW
Meteor 1-27 4.2 05:04:53 10° SSW 05:10:34 76° W 05:16:12 10° N
USA 234 4.0 05:04:58 10° NE 05:11:16 48° SE 05:17:32 10° SSW
Cosmos 1892 2.6 05:07:36 10° N 05:11:27 81° W 05:15:17 10° S
Landsat 4 4.2 05:07:59 10° SSE 05:11:39 63° ENE 05:15:23 10° N
NOSS 3-1 (C) 4.1 05:05:33 10° NW 05:13:14 66° WSW 05:21:36 10° SSE
Hubble Space Telescope 2.5 05:12:56 16° SSW 05:14:39 20° S 05:17:41 10° SE
Shenzhou-11 Module 1.9 05:14:51 25° WSW 05:16:30 87° SSE 05:19:36 10° ENE
Cosmos 1864 Rocket 4.5 05:10:19 10° S 05:16:36 84° W 05:22:52 10° N
PSLV R/B 3.6 05:13:47 10° N 05:18:05 63° WNW 05:22:19 10° SSW
BREEZE-M DEB (TANK) 3.0 05:20:13 20° SW 05:20:34 20° SW 05:23:17 10° SSE
Cosmos 1725 Rocket 3.9 05:15:39 10° S 05:21:49 76° W 05:28:01 10° N
Cosmos 1656 3.8 05:17:19 10° NNW 05:23:03 82° ENE 05:28:45 10° SSE
Cosmos 1802 Rocket 4.4 05:17:48 11° SSW 05:23:21 42° WNW 05:29:17 10° N
Cosmos 1825 4.0 05:23:15 10° NNE 05:26:46 35° ENE 05:30:16 10° SE
Cosmos 1933 Rocket 4.1 05:23:12 10° NNW 05:27:19 37° W 05:31:23 10° SSW
COSMOS 2487 2.7 05:28:40 11° SSW 05:31:54 50° WNW 05:35:22 10° N
Okean-O 4.2 05:28:18 10° NNE 05:32:27 38° E 05:36:34 10° SSE
Abrixas 2.0 05:30:22 10° WNW 05:32:59 74° SSW 05:35:35 10° SE
Okean O Rocket 2.0 05:31:53 10° N 05:36:06 44° WNW 05:40:16 10° SW
Cosmos 1833 Rocket 2.8 05:33:11 10° SSW 05:38:47 65° WNW 05:44:24 10° NNE
Meteor 2-12 Rocket 4.5 05:33:08 10° S 05:39:10 90° E 05:45:16 10° N
Cosmos 1151 Rocket 4.2 05:38:24 10° SW 05:41:56 24° WNW 05:45:28 10° NNW
Cosmos 1408 3.1 05:39:35 10° N 05:43:12 62° E 05:46:45 10° SSE
Tsikada Rocket 4.1 05:38:27 10° NNW 05:44:40 61° W 05:50:55 10° S
Cosmos 1707 Rocket 3.7 05:40:15 10° S 05:44:41 84° E 05:49:06 10° N
Cosmos 1980 Rocket 2.9 05:49:04 10° NNW 05:54:37 60° ENE 06:00:09 10° SE
